Time,TemperatureF,DewpointF,PressureIn,WindDirection,WindDirectionDegrees,WindSpeedMPH,WindSpeedGustMPH,Humidity,HourlyPrecipIn,Conditions,Clouds,dailyrainin,SoftwareType,DateUTC
2013-05-31 00:14:00,76.6,75.0,29.98,ESE,109,0.0,-999.0,93,-99.99,,,0.00,weatherlink.com 1.10,2013-05-31 05:14:00,
2013-05-31 00:29:00,76.3,74.0,29.98,SE,130,0.0,-999.0,93,-99.99,,,0.00,weatherlink.com 1.10,2013-05-31 05:29:00,
2013-05-31 00:44:00,76.0,74.0,29.97,SE,146,0.0,-999.0,93,-99.99,,,0.00,weatherlink.com 1.10,2013-05-31 05:44:00,
2013-05-31 01:00:00,75.8,74.0,29.96,SE,133,0.0,-999.0,94,-99.99,,,0.00,weatherlink.com 1.10,2013-05-31 06:00:00,
2013-05-31 01:15:00,75.6,74.0,29.96,SE,132,2.0,-999.0,94,-99.99,,,0.00,weatherlink.com 1.10,2013-05-31 06:15:00,
2013-05-31 01:30:00,75.4,74.0,29.96,ESE,123,2.0,-999.0,94,-99.99,,,0.00,weatherlink.com 1.10,2013-05-31 06:30:00,
2013-05-31 01:45:00,75.2,73.0,29.95,ESE,104,0.0,-999.0,94,-99.99,,,0.00,weatherlink.com 1.10,2013-05-31 06:45:00,
2013-05-31 02:00:00,75.0,74.0,29.95,ESE,113,1.0,-999.0,95,-99.99,,,0.00,weatherlink.com 1.10,2013-05-31 07:00:00,
2013-05-31 02:15:00,74.8,73.0,29.94,ESE,116,0.0,-999.0,94,-99.99,,,0.00,weatherlink.com 1.10,2013-05-31 07:15:00,
2013-05-31 02:30:00,74.6,73.0,29.94,ESE,121,4.0,-999.0,95,-99.99,,,0.00,weatherlink.com 1.10,2013-05-31 07:30:00,
2013-05-31 02:45:00,74.5,73.0,29.95,SE,146,1.0,-999.0,95,-99.99,,,0.00,weatherlink.com 1.10,2013-05-31 07:45:00,
2013-05-31 03:00:00,74.3,73.0,29.94,SE,145,0.0,-999.0,95,-99.99,,,0.00,weatherlink.com 1.10,2013-05-31 08:00:00,
2013-05-31 03:15:00,74.3,73.0,29.93,ESE,118,0.0,-999.0,95,-99.99,,,0.00,weatherlink.com 1.10,2013-05-31 08:15:00,
2013-05-31 03:30:00,74.4,73.0,29.93,East,86,0.0,-999.0,96,-99.99,,,0.00,weatherlink.com 1.10,2013-05-31 08:30:00,
2013-05-31 03:45:00,74.5,73.0,29.93,ESE,121,0.0,-999.0,96,-99.99,,,0.00,weatherlink.com 1.10,2013-05-31 08:45:00,
2013-05-31 04:00:00,74.4,73.0,29.93,SE,142,0.0,-999.0,96,-99.99,,,0.00,weatherlink.com 1.10,2013-05-31 09:00:00,
2013-05-31 04:15:00,74.4,73.0,29.94,SE,142,2.0,-999.0,96,-99.99,,,0.00,weatherlink.com 1.10,2013-05-31 09:15:00,
2013-05-31 04:30:00,74.4,73.0,29.94,ESE,117,0.0,-999.0,96,-99.99,,,0.00,weatherlink.com 1.10,2013-05-31 09:30:00,
2013-05-31 04:45:00,74.4,73.0,29.94,ESE,119,0.0,-999.0,96,-99.99,,,0.00,weatherlink.com 1.10,2013-05-31 09:45:00,
2013-05-31 05:00:00,74.5,73.0,29.94,SE,134,0.0,-999.0,96,-99.99,,,0.00,weatherlink.com 1.10,2013-05-31 10:00:00,
2013-05-31 05:15:00,74.5,73.0,29.94,SE,127,4.0,-999.0,96,-99.99,,,0.00,weatherlink.com 1.10,2013-05-31 10:15:00,
2013-05-31 05:30:00,74.6,73.0,29.95,SE,124,0.0,-999.0,96,-99.99,,,0.00,weatherlink.com 1.10,2013-05-31 10:30:00,
2013-05-31 05:45:00,74.6,73.0,29.96,ESE,115,2.0,-999.0,96,-99.99,,,0.00,weatherlink.com 1.10,2013-05-31 10:45:00,
2013-05-31 06:00:00,74.8,74.0,29.97,ESE,112,0.0,-999.0,96,-99.99,,,0.00,weatherlink.com 1.10,2013-05-31 11:00:00,
2013-05-31 06:15:00,74.8,74.0,29.97,ESE,112,5.0,-999.0,96,-99.99,,,0.00,weatherlink.com 1.10,2013-05-31 11:15:00,
2013-05-31 06:30:00,74.9,74.0,29.97,ESE,112,0.0,-999.0,96,-99.99,,,0.00,weatherlink.com 1.10,2013-05-31 11:30:00,
2013-05-31 06:45:00,75.0,74.0,29.98,ESE,112,2.0,-999.0,96,-99.99,,,0.00,weatherlink.com 1.10,2013-05-31 11:45:00,
2013-05-31 07:00:00,75.2,74.0,29.98,ESE,112,2.0,-999.0,96,-99.99,,,0.00,weatherlink.com 1.10,2013-05-31 12:00:00,
2013-05-31 07:15:00,75.4,74.0,29.99,ESE,112,0.0,-999.0,96,-99.99,,,0.00,weatherlink.com 1.10,2013-05-31 12:15:00,
2013-05-31 07:30:00,75.6,74.0,29.99,ESE,107,4.0,-999.0,96,-99.99,,,0.00,weatherlink.com 1.10,2013-05-31 12:30:00,
2013-05-31 07:45:00,75.9,75.0,29.99,SE,129,0.0,-999.0,96,-99.99,,,0.00,weatherlink.com 1.10,2013-05-31 12:45:00,
2013-05-31 08:00:00,76.5,75.0,29.99,SE,128,1.0,-999.0,96,-99.99,,,0.00,weatherlink.com 1.10,2013-05-31 13:00:00,
2013-05-31 08:15:00,77.3,76.0,29.99,East,89,5.0,-999.0,95,-99.99,,,0.00,weatherlink.com 1.10,2013-05-31 13:15:00,
2013-05-31 08:30:00,78.2,76.0,30.00,East,80,3.0,-999.0,93,-99.99,,,0.00,weatherlink.com 1.10,2013-05-31 13:30:00,
2013-05-31 08:45:00,79.2,76.0,30.00,ESE,116,0.0,-999.0,91,-99.99,,,0.00,weatherlink.com 1.10,2013-05-31 13:45:00,
2013-05-31 09:00:00,80.1,77.0,30.00,ESE,121,2.0,-999.0,89,-99.99,,,0.00,weatherlink.com 1.10,2013-05-31 14:00:00,
2013-05-31 09:15:00,80.5,76.0,30.00,ESE,116,4.0,-999.0,87,-99.99,,,0.00,weatherlink.com 1.10,2013-05-31 14:15:00,
2013-05-31 09:30:00,81.5,77.0,29.99,SE,127,0.0,-999.0,86,-99.99,,,0.00,weatherlink.com 1.10,2013-05-31 14:30:00,
2013-05-31 09:45:00,83.0,77.0,30.00,SSW,198,0.0,-999.0,83,-99.99,,,0.00,weatherlink.com 1.10,2013-05-31 14:45:00,
2013-05-31 10:00:00,83.9,78.0,29.99,SSE,159,1.0,-999.0,83,-99.99,,,0.00,weatherlink.com 1.10,2013-05-31 15:00:00,
2013-05-31 10:15:00,85.2,78.0,29.99,ESE,122,5.0,-999.0,78,-99.99,,,0.00,weatherlink.com 1.10,2013-05-31 15:15:00,
2013-05-31 10:30:00,86.5,78.0,29.98,SE,127,0.0,-999.0,76,-99.99,,,0.00,weatherlink.com 1.10,2013-05-31 15:30:00,
2013-05-31 10:45:00,86.7,78.0,29.98,WSW,253,0.0,-999.0,74,-99.99,,,0.00,weatherlink.com 1.10,2013-05-31 15:45:00,
2013-05-31 11:00:00,87.4,78.0,29.98,South,178,0.0,-999.0,73,-99.99,,,0.00,weatherlink.com 1.10,2013-05-31 16:00:00,
2013-05-31 11:16:00,89.0,78.0,29.98,SW,229,0.0,-999.0,69,-99.99,,,0.00,weatherlink.com 1.10,2013-05-31 16:16:00,
2013-05-31 11:31:00,89.5,78.0,29.98,SE,133,1.0,-999.0,69,-99.99,,,0.00,weatherlink.com 1.10,2013-05-31 16:31:00,
2013-05-31 11:46:00,91.0,78.0,29.97,South,173,0.0,-999.0,66,-99.99,,,0.00,weatherlink.com 1.10,2013-05-31 16:46:00,
2013-05-31 12:01:00,90.8,79.0,29.97,South,170,0.0,-999.0,68,-99.99,,,0.00,weatherlink.com 1.10,2013-05-31 17:01:00,
2013-05-31 12:16:00,91.2,78.0,29.97,SE,134,1.0,-999.0,65,-99.99,,,0.00,weatherlink.com 1.10,2013-05-31 17:16:00,
2013-05-31 12:31:00,91.0,78.0,29.97,South,191,0.0,-999.0,65,-99.99,,,0.00,weatherlink.com 1.10,2013-05-31 17:31:00,
2013-05-31 12:46:00,91.7,78.0,29.97,ESE,121,1.0,-999.0,64,-99.99,,,0.00,weatherlink.com 1.10,2013-05-31 17:46:00,
2013-05-31 13:01:00,91.5,78.0,29.96,SE,126,0.0,-999.0,65,-99.99,,,0.00,weatherlink.com 1.10,2013-05-31 18:01:00,
2013-05-31 13:16:00,91.0,79.0,29.96,SSE,148,4.0,-999.0,68,-99.99,,,0.00,weatherlink.com 1.10,2013-05-31 18:16:00,
2013-05-31 13:31:00,90.2,78.0,29.96,SSE,151,0.0,-999.0,67,-99.99,,,0.00,weatherlink.com 1.10,2013-05-31 18:31:00,
2013-05-31 13:46:00,91.8,79.0,29.96,East,85,1.0,-999.0,66,-99.99,,,0.00,weatherlink.com 1.10,2013-05-31 18:46:00,
2013-05-31 14:01:00,91.7,78.0,29.96,South,186,0.0,-999.0,64,-99.99,,,0.00,weatherlink.com 1.10,2013-05-31 19:01:00,
2013-05-31 14:31:00,91.2,79.0,29.95,SE,132,4.0,-999.0,67,-99.99,,,0.00,weatherlink.com 1.10,2013-05-31 19:31:00,
2013-05-31 14:46:00,90.6,79.0,29.95,SE,144,0.0,-999.0,69,-99.99,,,0.00,weatherlink.com 1.10,2013-05-31 19:46:00,
2013-05-31 15:01:00,91.9,79.0,29.94,SSE,160,2.0,-999.0,65,-99.99,,,0.00,weatherlink.com 1.10,2013-05-31 20:01:00,
2013-05-31 15:16:00,86.3,76.0,29.94,ESE,109,0.0,-999.0,72,-99.99,,,0.00,weatherlink.com 1.10,2013-05-31 20:16:00,
2013-05-31 15:31:00,84.8,78.0,29.93,ESE,115,0.0,-999.0,79,-99.99,,,0.00,weatherlink.com 1.10,2013-05-31 20:31:00,
2013-05-31 15:46:00,86.8,79.0,29.93,SE,135,1.0,-999.0,78,-99.99,,,0.00,weatherlink.com 1.10,2013-05-31 20:46:00,
2013-05-31 16:01:00,88.2,79.0,29.93,SSW,192,2.0,-999.0,75,-99.99,,,0.00,weatherlink.com 1.10,2013-05-31 21:01:00,
2013-05-31 16:16:00,89.7,80.0,29.92,ESE,122,7.0,-999.0,72,-99.99,,,0.00,weatherlink.com 1.10,2013-05-31 21:16:00,
2013-05-31 16:31:00,90.8,78.0,29.93,East,90,4.0,-999.0,67,-99.99,,,0.00,weatherlink.com 1.10,2013-05-31 21:31:00,
2013-05-31 16:46:00,90.5,77.0,29.93,SE,142,1.0,-999.0,64,-99.99,,,0.00,weatherlink.com 1.10,2013-05-31 21:46:00,
2013-05-31 17:01:00,90.0,78.0,29.92,South,190,1.0,-999.0,67,-99.99,,,0.00,weatherlink.com 1.10,2013-05-31 22:01:00,
2013-05-31 17:16:00,89.7,77.0,29.92,South,189,0.0,-999.0,67,-99.99,,,0.00,weatherlink.com 1.10,2013-05-31 22:16:00,
2013-05-31 17:31:00,88.7,77.0,29.92,SSW,205,2.0,-999.0,68,-99.99,,,0.00,weatherlink.com 1.10,2013-05-31 22:31:00,
2013-05-31 17:46:00,87.6,77.0,29.91,ESE,103,1.0,-999.0,70,-99.99,,,0.00,weatherlink.com 1.10,2013-05-31 22:46:00,
2013-05-31 18:01:00,88.0,77.0,29.92,SE,141,2.0,-999.0,69,-99.99,,,0.00,weatherlink.com 1.10,2013-05-31 23:01:00,
2013-05-31 18:16:00,87.5,77.0,29.91,ESE,106,0.0,-999.0,70,-99.99,,,0.00,weatherlink.com 1.10,2013-05-31 23:16:00,
2013-05-31 18:31:00,87.2,77.0,29.92,ESE,121,1.0,-999.0,71,-99.99,,,0.00,weatherlink.com 1.10,2013-05-31 23:31:00,
2013-05-31 18:46:00,86.5,77.0,29.92,SE,128,0.0,-999.0,72,-99.99,,,0.00,weatherlink.com 1.10,2013-05-31 23:46:00,
2013-05-31 19:01:00,86.0,76.0,29.92,SSE,162,1.0,-999.0,73,-99.99,,,0.00,weatherlink.com 1.10,2013-06-01 00:01:00,
2013-05-31 19:16:00,85.5,76.0,29.93,SSW,207,0.0,-999.0,74,-99.99,,,0.00,weatherlink.com 1.10,2013-06-01 00:16:00,
2013-05-31 19:31:00,85.1,76.0,29.93,SE,137,0.0,-999.0,74,-99.99,,,0.00,weatherlink.com 1.10,2013-06-01 00:31:00,
2013-05-31 19:46:00,84.5,76.0,29.93,South,173,0.0,-999.0,75,-99.99,,,0.00,weatherlink.com 1.10,2013-06-01 00:46:00,
2013-05-31 20:01:00,83.9,76.0,29.93,SE,141,0.0,-999.0,76,-99.99,,,0.00,weatherlink.com 1.10,2013-06-01 01:01:00,
2013-05-31 20:16:00,83.5,76.0,29.93,SE,142,0.0,-999.0,77,-99.99,,,0.00,weatherlink.com 1.10,2013-06-01 01:16:00,
2013-05-31 20:31:00,83.0,76.0,29.93,SE,142,0.0,-999.0,78,-99.99,,,0.00,weatherlink.com 1.10,2013-06-01 01:31:00,
2013-05-31 20:46:00,82.6,76.0,29.93,SE,142,0.0,-999.0,79,-99.99,,,0.00,weatherlink.com 1.10,2013-06-01 01:46:00,
2013-05-31 21:01:00,82.0,75.0,29.93,SE,142,0.0,-999.0,79,-99.99,,,0.00,weatherlink.com 1.10,2013-06-01 02:01:00,
2013-05-31 21:16:00,81.2,75.0,29.93,SE,142,0.0,-999.0,81,-99.99,,,0.00,weatherlink.com 1.10,2013-06-01 02:16:00,
2013-05-31 21:31:00,80.6,75.0,29.94,SE,142,0.0,-999.0,82,-99.99,,,0.00,weatherlink.com 1.10,2013-06-01 02:31:00,
2013-05-31 21:46:00,80.5,75.0,29.93,SE,126,0.0,-999.0,84,-99.99,,,0.00,weatherlink.com 1.10,2013-06-01 02:46:00,
2013-05-31 22:01:00,80.2,76.0,29.94,East,101,0.0,-999.0,87,-99.99,,,0.00,weatherlink.com 1.10,2013-06-01 03:01:00,
2013-05-31 22:16:00,79.9,76.0,29.93,East,98,0.0,-999.0,88,-99.99,,,0.00,weatherlink.com 1.10,2013-06-01 03:16:00,
2013-05-31 22:31:00,79.6,76.0,29.93,SE,129,0.0,-999.0,88,-99.99,,,0.00,weatherlink.com 1.10,2013-06-01 03:31:00,
2013-05-31 22:46:00,79.1,75.0,29.93,SE,142,0.0,-999.0,88,-99.99,,,0.00,weatherlink.com 1.10,2013-06-01 03:46:00,
2013-05-31 23:01:00,78.8,75.0,29.93,SE,142,0.0,-999.0,88,-99.99,,,0.00,weatherlink.com 1.10,2013-06-01 04:01:00,
2013-05-31 23:16:00,78.4,75.0,29.93,SE,140,0.0,-999.0,89,-99.99,,,0.00,weatherlink.com 1.10,2013-06-01 04:16:00,
2013-05-31 23:31:00,78.0,74.0,29.93,ESE,115,0.0,-999.0,88,-99.99,,,0.00,weatherlink.com 1.10,2013-06-01 04:31:00,
2013-05-31 23:46:00,78.0,74.0,29.94,ESE,119,0.0,-999.0,88,-99.99,,,0.00,weatherlink.com 1.10,2013-06-01 04:46:00,